Simultaneous Nadir Overpasses (SNOs) Predictions

Prediction of SNOs between GOES-16 and NOAA-20 Satellite Orbit:

Table of predicted SNOs for the next 14.0 days since TLE Epoch: 10/26/2024
Index Date Time (GOES-16) GOES-16 Lat,Lon NOAA-20 Lat,Lon Distance(km) Time Diff (sec)
1 10/26/2024 06:22:12 0.02, -75.19 -0.03, -74.98 24.31 80
2 10/28/2024 18:25:24 -0.02, -75.23 -0.16, -75.76 60.24 80
3 10/29/2024 18:09:20 -0.02, -75.24 0.86, -71.23 457.33 80
4 10/31/2024 06:31:08 0.02, -75.25 0.28, -76.51 143.32 80
5 11/01/2024 06:09:43 0.02, -75.26 -0.74, -71.98 374.41 80
6 11/02/2024 18:31:40 -0.02, -75.29 -0.44, -77.29 226.41 80
7 11/03/2024 18:15:34 -0.02, -75.31 0.53, -72.75 291.54 80
8 11/05/2024 06:37:23 0.02, -75.32 0.59, -78.03 308.47 80
9 11/06/2024 06:15:57 0.02, -75.33 -0.39, -73.49 209.43 80
10 11/07/2024 18:37:53 -0.01, -75.37 -0.78, -78.80 391.21 80
11 11/08/2024 18:21:49 -0.01, -75.38 0.27, -74.27 127.16 80
